{"data":{"norad_id":55756,"epoch":"2026-05-25T02:56:01.517856Z","epoch_age_seconds":75158,"freshness":"FRESH","line1":"1 55756U 23028R   26145.12223979  .00000182  00000+0  23068-4 0  9999","line2":"2 55756  70.0005  51.5585 0002653 266.4895  93.5961 14.98330025177493","mean_motion":14.98330025,"eccentricity":0.0002653,"inclination_deg":70.0005,"raan_deg":51.5585,"arg_perigee_deg":266.4895,"mean_anomaly_deg":93.5961,"bstar":2.3068e-5,"rev_number":17749,"period_min":96.106997522125,"perigee_km":570.21192748052,"apogee_km":573.89969978744,"semimajor_km":6950.192813634,"source":"CELESTRAK","updated_at":"2026-05-25T13:38:17.880636Z"}}